^^
Saratoga-Weather Station Historical Data
Daily Summary for July 1, 2021 Units:  English    Metric   Both
Daily Weekly Monthly Yearly Custom
  High: Low: Average:
Temperature: 47.7 °F 42.4 °F 44.2 °F
Dew Point: 46 °F 40.8 °F 42.6 °F
Humidity: 96% 91% 94%
Wind Speed: 12.1mph 0mph 3.4mph
Wind Gust: 20mph - -
Wind- - SW
Pressure: 29.9 in 29.4 in -
Precipitation: 0.41 in    
Historical Graphs
 
 
Tabular Data for July 1, 2021
Time Temperature Dew Point Pressure Wind Wind Speed Wind Gust Humidity Rainfall Rate (Hourly) solar
00:03 42.4 °F 40.8 °F 29.9 in NW 4 mph 8 mph 94% 0 in 0 W/m2
00:08 42.4 °F 40.8 °F 29.9 in NNW 2.9 mph 12 mph 94% 0 in 0 W/m2
00:13 42.4 °F 40.8 °F 29.9 in NW 4.9 mph 5 mph 94% 0 in 0 W/m2
00:18 42.4 °F 41.2 °F 29.9 in South 2 mph 10 mph 95% 0 in 0 W/m2
00:23 42.4 °F 41.2 °F 29.9 in SW 8.9 mph 10 mph 95% 0 in 0 W/m2
00:28 42.4 °F 41.2 °F 29.9 in NW 4.9 mph 5 mph 95% 0 in 0 W/m2
00:33 42.4 °F 41.2 °F 29.9 in WNW 4 mph 5 mph 95% 0 in 0 W/m2
00:38 42.4 °F 41.2 °F 29.9 in West 0.9 mph 9 mph 95% 0 in 0 W/m2
00:43 42.4 °F 41.2 °F 29.9 in WNW 6 mph 9 mph 95% 0 in 0 W/m2
00:48 42.4 °F 41.2 °F 29.8 in West 6.9 mph 7 mph 95% 0 in 0 W/m2
00:53 42.4 °F 41.2 °F 29.8 in WSW 0.9 mph 7 mph 95% 0 in 0 W/m2
00:58 42.4 °F 41.2 °F 29.8 in NW 2.9 mph 7 mph 95% 0 in 0 W/m2
01:03 42.4 °F 41.2 °F 29.8 in WNW 2 mph 7 mph 95% 0 in 0 W/m2
01:08 42.6 °F 41.4 °F 29.8 in North 2.9 mph 7 mph 95% 0 in 0 W/m2
01:13 42.6 °F 41.4 °F 29.8 in NW 4 mph 8 mph 95% 0 in 0 W/m2
01:18 42.6 °F 41.4 °F 29.8 in NW 4 mph 7 mph 95% 0 in 0 W/m2
01:23 42.6 °F 41.4 °F 29.8 in East 2 mph 7 mph 95% 0.01 in 0 W/m2
01:28 42.6 °F 41.4 °F 29.8 in West 2 mph 12 mph 95% 0.01 in 0 W/m2
01:33 42.6 °F 41.4 °F 29.8 in WNW 4 mph 11 mph 95% 0.01 in 0 W/m2
01:38 42.6 °F 41.4 °F 29.8 in West 2.9 mph 7 mph 95% 0.01 in 0 W/m2
01:43 42.6 °F 41.4 °F 29.8 in NW 2.9 mph 12 mph 95% 0.01 in 0 W/m2
01:48 42.8 °F 41.5 °F 29.8 in West 2.9 mph 7 mph 95% 0.01 in 0 W/m2
01:53 43 °F 41.7 °F 29.8 in WSW 6.9 mph 9 mph 95% 0.01 in 0 W/m2
01:58 43 °F 41.7 °F 29.8 in WNW 4.9 mph 5 mph 95% 0.01 in 0 W/m2
02:03 43 °F 41.7 °F 29.8 in West 2 mph 20 mph 95% 0.01 in 0 W/m2
02:08 43 °F 41.7 °F 29.8 in NNW 2.9 mph 6 mph 95% 0.01 in 0 W/m2
02:13 43.2 °F 41.5 °F 29.8 in WNW 6.9 mph 8 mph 94% 0.01 in 0 W/m2
02:18 43.2 °F 41.5 °F 29.8 in South 2.9 mph 6 mph 94% 0.01 in 0 W/m2
02:23 43.2 °F 41.5 °F 29.8 in NE 6.9 mph 7 mph 94% 0 in 0 W/m2
02:28 43.3 °F 41.7 °F 29.8 in SW 0.9 mph 16 mph 94% 0 in 0 W/m2
02:33 43.3 °F 41.7 °F 29.8 in WNW 0.9 mph 12 mph 94% 0 in 0 W/m2
02:38 43.5 °F 41.7 °F 29.8 in NNW 2 mph 13 mph 93% 0 in 0 W/m2
02:43 43.3 °F 41.5 °F 29.8 in South 4.9 mph 12 mph 93% 0 in 0 W/m2
02:48 43.3 °F 41.5 °F 29.8 in North 8.1 mph 8 mph 93% 0 in 0 W/m2
02:53 43.3 °F 41.5 °F 29.8 in NNW 2 mph 12 mph 93% 0 in 0 W/m2
02:58 43.3 °F 41.5 °F 29.8 in SW 2 mph 8 mph 93% 0 in 0 W/m2
03:03 43.3 °F 41.5 °F 29.8 in ENE 4 mph 6 mph 93% 0 in 0 W/m2
03:08 43.2 °F 41.4 °F 29.8 in WNW 2 mph 5 mph 93% 0 in 0 W/m2
03:13 43.2 °F 41.4 °F 29.8 in West 2 mph 12 mph 93% 0 in 0 W/m2
03:18 43.2 °F 41.4 °F 29.8 in NNW 2.9 mph 4 mph 93% 0 in 0 W/m2
03:23 43.2 °F 41.5 °F 29.8 in WSW 4 mph 15 mph 94% 0 in 0 W/m2
03:28 43.2 °F 41.5 °F 29.8 in WNW 6.9 mph 10 mph 94% 0 in 0 W/m2
03:33 43 °F 41.4 °F 29.8 in Calm   15 mph 94% 0 in 0 W/m2
03:38 43.2 °F 41.5 °F 29.8 in WNW 0.9 mph 10 mph 94% 0 in 0 W/m2
03:43 43.2 °F 41.4 °F 29.7 in West 2.9 mph 4 mph 93% 0 in 0 W/m2
03:48 43.2 °F 41.4 °F 29.7 in NW 4.9 mph 7 mph 93% 0 in 0 W/m2
03:53 43.2 °F 41.4 °F 29.7 in SSW 6 mph 7 mph 93% 0 in 0 W/m2
03:58 43.2 °F 41.4 °F 29.7 in North 2 mph 11 mph 93% 0 in 0 W/m2
04:03 43.2 °F 41.4 °F 29.7 in SE 0.9 mph 10 mph 93% 0.01 in 0 W/m2
04:08 43.2 °F 41.4 °F 29.7 in WSW 6.9 mph 7 mph 93% 0.01 in 0 W/m2
04:13 43.2 °F 41.4 °F 29.7 in NNW 4.9 mph 10 mph 93% 0.01 in 0 W/m2
04:18 43.2 °F 41.4 °F 29.7 in North 2.9 mph 6 mph 93% 0.01 in 0 W/m2
04:23 43 °F 41.2 °F 29.7 in ENE 2 mph 8 mph 93% 0.01 in 0 W/m2
04:28 43 °F 41.2 °F 29.7 in NW 0.9 mph 3 mph 93% 0.01 in 0 W/m2
04:33 43 °F 41.2 °F 29.7 in SW 2 mph 4 mph 93% 0.01 in 0 W/m2
04:38 43 °F 41.2 °F 29.7 in Calm   9 mph 93% 0.01 in 0 W/m2
04:43 43 °F 41.2 °F 29.7 in Calm   3 mph 93% 0.01 in 0 W/m2
04:48 43 °F 41.2 °F 29.7 in West 2 mph 4 mph 93% 0.01 in 0 W/m2
04:53 43.2 °F 41.4 °F 29.7 in NW 4 mph 5 mph 93% 0.01 in 0 W/m2
04:58 43.2 °F 41.4 °F 29.7 in South 2 mph 10 mph 93% 0.01 in 0 W/m2
05:03 43.2 °F 41.4 °F 29.7 in North 4 mph 5 mph 93% 0 in 0 W/m2
05:08 43.3 °F 41.2 °F 29.7 in NW 4 mph 10 mph 92% 0 in 0 W/m2
05:13 43.5 °F 41.4 °F 29.7 in NNE 2.9 mph 4 mph 92% 0 in 0 W/m2
05:18 43.5 °F 41.4 °F 29.7 in WNW 2 mph 12 mph 92% 0 in 0 W/m2
05:23 43.7 °F 41.5 °F 29.7 in West 2 mph 10 mph 92% 0 in 0 W/m2
05:28 43.9 °F 41.7 °F 29.7 in SSW 0.9 mph 12 mph 92% 0 in 0 W/m2
05:33 44.1 °F 41.5 °F 29.7 in NE 2 mph 11 mph 91% 0 in 0 W/m2
05:38 44.1 °F 41.5 °F 29.7 in NNE 0.9 mph 5 mph 91% 0 in 0 W/m2
05:43 43.9 °F 41.4 °F 29.7 in WSW 0.9 mph 11 mph 91% 0 in 0 W/m2
05:48 43.9 °F 41.4 °F 29.7 in NW 0.9 mph 5 mph 91% 0 in 0 W/m2
05:53 43.9 °F 41.7 °F 29.7 in WNW 2.9 mph 8 mph 92% 0 in 0 W/m2
05:58 43.9 °F 41.7 °F 29.7 in WSW 2.9 mph 5 mph 92% 0 in 0 W/m2
06:03 43.7 °F 41.5 °F 29.6 in NW 2.9 mph 5 mph 92% 0 in 0 W/m2
06:08 43.7 °F 41.5 °F 29.7 in NW 2.9 mph 9 mph 92% 0 in 0 W/m2
06:13 43.5 °F 41.4 °F 29.6 in WNW 4 mph 8 mph 92% 0 in 0 W/m2
06:18 43.5 °F 41.7 °F 29.6 in North 2 mph 5 mph 93% 0 in 0 W/m2
06:23 43.5 °F 41.7 °F 29.6 in NNW 0.9 mph 4 mph 93% 0 in 0 W/m2
06:28 43.5 °F 41.7 °F 29.6 in West 6.9 mph 7 mph 93% 0 in 0 W/m2
06:33 43.7 °F 41.7 °F 29.6 in Calm   2 mph 93% 0 in 0 W/m2
06:38 43.9 °F 41.9 °F 29.6 in NNW 2 mph 4 mph 93% 0 in 0 W/m2
06:43 43.9 °F 41.9 °F 29.6 in NNE 2 mph 3 mph 93% 0 in 0 W/m2
06:48 43.9 °F 41.9 °F 29.6 in ENE 0.9 mph 4 mph 93% 0 in 0 W/m2
06:53 44.1 °F 42.1 °F 29.6 in NNE 2.9 mph 4 mph 93% 0 in 0 W/m2
06:58 44.1 °F 42.1 °F 29.6 in NE 0.9 mph 2 mph 93% 0 in 0 W/m2
07:03 44.2 °F 42.3 °F 29.6 in North 0.9 mph 4 mph 93% 0 in 0 W/m2
07:08 44.2 °F 42.3 °F 29.6 in East 2 mph 5 mph 93% 0 in 0 W/m2
07:13 44.2 °F 42.3 °F 29.6 in NNE 4 mph 7 mph 93% 0 in 0 W/m2
07:18 44.2 °F 42.3 °F 29.6 in NE 2 mph 5 mph 93% 0 in 0 W/m2
07:23 44.2 °F 42.3 °F 29.6 in WNW 4.9 mph 14 mph 93% 0 in 0 W/m2
07:28 44.2 °F 42.3 °F 29.6 in NE 0.9 mph 5 mph 93% 0 in 0 W/m2
07:33 44.2 °F 42.3 °F 29.6 in NW 0.9 mph 14 mph 93% 0 in 0 W/m2
07:38 44.2 °F 42.3 °F 29.6 in NW 4 mph 10 mph 93% 0 in 0 W/m2
07:43 44.1 °F 42.1 °F 29.6 in West 6 mph 12 mph 93% 0 in 0 W/m2
07:48 44.1 °F 42.1 °F 29.6 in SW 4.9 mph 6 mph 93% 0 in 0 W/m2
07:53 43.9 °F 41.9 °F 29.6 in ENE 4 mph 4 mph 93% 0.01 in 0 W/m2
07:58 43.9 °F 42.3 °F 29.6 in NE 2.9 mph 8 mph 94% 0.02 in 0 W/m2
08:03 43.9 °F 42.3 °F 29.6 in South 2 mph 5 mph 94% 0.02 in 0 W/m2
08:08 43.7 °F 42.1 °F 29.6 in North 2.9 mph 4 mph 94% 0.04 in 0 W/m2
08:13 43.5 °F 41.9 °F 29.6 in NE 2 mph 5 mph 94% 0.05 in 0 W/m2
08:18 43.5 °F 41.9 °F 29.6 in NW 4 mph 7 mph 94% 0.06 in 0 W/m2
08:23 43.5 °F 41.9 °F 29.6 in NNE 2.9 mph 4 mph 94% 0.06 in 0 W/m2
08:28 43.5 °F 41.9 °F 29.6 in WSW 8.1 mph 11 mph 94% 0.08 in 0 W/m2
08:33 43.7 °F 42.1 °F 29.6 in West 2 mph 9 mph 94% 0.08 in 0 W/m2
08:38 43.7 °F 42.1 °F 29.6 in NNW 2 mph 6 mph 94% 0.08 in 5 W/m2
08:43 43.5 °F 41.9 °F 29.5 in NE 2 mph 6 mph 94% 0.09 in 11 W/m2
08:48 43.5 °F 41.9 °F 29.5 in NNW 4.9 mph 12 mph 94% 0.09 in 9 W/m2
08:53 43.5 °F 41.9 °F 29.5 in WNW 10.1 mph 13 mph 94% 0.09 in 11 W/m2
08:58 43.5 °F 41.9 °F 29.5 in NNW 4 mph 7 mph 94% 0.09 in 12 W/m2
09:03 43.7 °F 42.1 °F 29.5 in NE 2 mph 13 mph 94% 0.08 in 11 W/m2
09:08 43.7 °F 42.1 °F 29.5 in ENE 8.1 mph 9 mph 94% 0.07 in 21 W/m2
09:13 43.9 °F 42.3 °F 29.5 in NE 0.9 mph 10 mph 94% 0.07 in 23 W/m2
09:18 43.9 °F 42.3 °F 29.5 in West 2 mph 13 mph 94% 0.07 in 26 W/m2
09:23 43.9 °F 42.3 °F 29.5 in Calm   7 mph 94% 0.07 in 19 W/m2
09:28 43.9 °F 42.3 °F 29.5 in East 4 mph 14 mph 94% 0.06 in 12 W/m2
09:33 43.9 °F 42.3 °F 29.5 in NW 2.9 mph 10 mph 94% 0.07 in 12 W/m2
09:38 43.9 °F 42.3 °F 29.5 in NNE 4 mph 14 mph 94% 0.08 in 14 W/m2
09:43 43.9 °F 42.3 °F 29.5 in NNW 2 mph 5 mph 94% 0.09 in 21 W/m2
09:48 44.1 °F 42.4 °F 29.5 in North 2 mph 9 mph 94% 0.09 in 19 W/m2
09:54 44.1 °F 42.4 °F 29.5 in WSW 2 mph 11 mph 94% 0.09 in 19 W/m2
09:59 44.1 °F 42.4 °F 29.5 in NNW 4.9 mph 6 mph 94% 0.09 in 18 W/m2
10:04 44.1 °F 42.4 °F 29.5 in ENE 4.9 mph 12 mph 94% 0.09 in 16 W/m2
10:09 44.1 °F 42.4 °F 29.5 in West 4 mph 9 mph 94% 0.11 in 35 W/m2
10:14 44.2 °F 42.6 °F 29.5 in NW 4 mph 17 mph 94% 0.1 in 32 W/m2
10:19 44.2 °F 43 °F 29.5 in NNW 4.9 mph 8 mph 95% 0.1 in 44 W/m2
10:24 44.2 °F 43 °F 29.5 in North 8.1 mph 17 mph 95% 0.1 in 37 W/m2
10:29 44.2 °F 43 °F 29.5 in SW 0.9 mph 8 mph 95% 0.1 in 35 W/m2
10:34 44.2 °F 43 °F 29.5 in WNW 12.1 mph 14 mph 95% 0.1 in 23 W/m2
10:39 44.2 °F 43 °F 29.5 in ENE 2.9 mph 7 mph 95% 0.1 in 21 W/m2
10:44 44.2 °F 43 °F 29.5 in WNW 2 mph 14 mph 95% 0.09 in 26 W/m2
10:49 44.4 °F 43.2 °F 29.5 in ESE 2 mph 8 mph 95% 0.09 in 21 W/m2
10:54 44.4 °F 43.2 °F 29.5 in West 4 mph 12 mph 95% 0.09 in 16 W/m2
10:59 44.4 °F 43.2 °F 29.5 in West 2 mph 6 mph 95% 0.08 in 26 W/m2
11:04 44.4 °F 43.2 °F 29.5 in North 4 mph 12 mph 95% 0.07 in 23 W/m2
11:09 44.6 °F 43.3 °F 29.5 in ESE 4 mph 7 mph 95% 0.06 in 23 W/m2
11:14 44.6 °F 43.3 °F 29.5 in SSE 2.9 mph 9 mph 95% 0.06 in 25 W/m2
11:19 44.8 °F 43.5 °F 29.5 in NW 4.9 mph 9 mph 95% 0.05 in 42 W/m2
11:24 44.8 °F 43.5 °F 29.5 in ENE 2 mph 8 mph 95% 0.05 in 35 W/m2
11:29 44.8 °F 43.5 °F 29.5 in ENE 2 mph 10 mph 95% 0.05 in 51 W/m2
11:34 45 °F 43.7 °F 29.5 in NE 6.9 mph 7 mph 95% 0.04 in 33 W/m2
11:39 45 °F 43.7 °F 29.5 in WNW 2.9 mph 10 mph 95% 0.04 in 30 W/m2
11:44 45 °F 43.7 °F 29.5 in SE 2 mph 10 mph 95% 0.03 in 44 W/m2
11:49 45 °F 43.7 °F 29.5 in West 6 mph 10 mph 95% 0.03 in 56 W/m2
11:54 45 °F 43.7 °F 29.5 in WSW 2.9 mph 5 mph 95% 0.03 in 44 W/m2
11:59 45 °F 43.7 °F 29.5 in East 8.1 mph 10 mph 95% 0.04 in 42 W/m2
12:04 45.1 °F 43.9 °F 29.5 in North 4 mph 7 mph 95% 0.04 in 30 W/m2
12:09 45.1 °F 43.9 °F 29.4 in NW 4 mph 9 mph 95% 0.04 in 53 W/m2
12:14 45.1 °F 43.9 °F 29.4 in NNE 8.1 mph 10 mph 95% 0.05 in 40 W/m2
12:19 45.1 °F 43.9 °F 29.4 in NNE 0.9 mph 6 mph 95% 0.05 in 23 W/m2
12:24 45.3 °F 44.1 °F 29.4 in ENE 0.9 mph 2 mph 95% 0.04 in 39 W/m2
12:29 45.3 °F 44.1 °F 29.4 in North 2.9 mph 4 mph 95% 0.04 in 26 W/m2
12:34 45.3 °F 44.1 °F 29.4 in SSW 2.9 mph 7 mph 95% 0.04 in 19 W/m2
12:39 45.3 °F 44.1 °F 29.4 in Calm   4 mph 95% 0.03 in 19 W/m2
12:44 45.3 °F 44.1 °F 29.4 in West 2 mph 5 mph 95% 0.03 in 19 W/m2
12:49 45.5 °F 44.2 °F 29.4 in SSW 4 mph 5 mph 95% 0.03 in 26 W/m2
12:54 45.7 °F 44.4 °F 29.4 in WNW 2 mph 5 mph 95% 0.03 in 32 W/m2
12:59 45.7 °F 44.4 °F 29.4 in WNW 0.9 mph 3 mph 95% 0.02 in 23 W/m2
13:04 45.9 °F 44.4 °F 29.4 in NE 0.9 mph 6 mph 95% 0.03 in 19 W/m2
13:09 45.9 °F 44.4 °F 29.4 in Calm   4 mph 95% 0.03 in 33 W/m2
13:14 45.9 °F 44.8 °F 29.4 in WNW 4.9 mph 9 mph 96% 0.02 in 60 W/m2
13:19 46 °F 45 °F 29.4 in SSW 2 mph 6 mph 96% 0.02 in 40 W/m2
13:24 46.2 °F 44.8 °F 29.4 in Calm   6 mph 95% 0.02 in 33 W/m2
13:29 46.6 °F 45.1 °F 29.4 in West 2.9 mph 4 mph 95% 0.02 in 62 W/m2
13:34 46.6 °F 45.1 °F 29.4 in NNW 4 mph 10 mph 95% 0.02 in 51 W/m2
13:39 46.8 °F 45.3 °F 29.4 in NW 2.9 mph 11 mph 95% 0.02 in 91 W/m2
13:44 46.9 °F 45.5 °F 29.4 in West 2.9 mph 7 mph 95% 0.02 in 88 W/m2
13:49 47.1 °F 45.7 °F 29.4 in SW 2.9 mph 10 mph 95% 0.02 in 54 W/m2
13:54 47.3 °F 45.7 °F 29.4 in WSW 2 mph 6 mph 94% 0.01 in 74 W/m2
13:59 47.5 °F 45.9 °F 29.4 in West 2 mph 12 mph 94% 0.01 in 62 W/m2
14:04 47.7 °F 46 °F 29.4 in WNW 8.1 mph 13 mph 94% 0.01 in 32 W/m2
14:09 47.7 °F 45.7 °F 29.4 in WSW 4 mph 7 mph 93% 0.02 in 14 W/m2
14:14 47.7 °F 45.7 °F 29.4 in NW 4 mph 11 mph 93% 0.02 in 23 W/m2
14:19 47.5 °F 45.5 °F 29.4 in WNW 4.9 mph 11 mph 93% 0.03 in 32 W/m2
14:24 47.5 °F 45.5 °F 29.4 in WNW 4 mph 11 mph 93% 0.03 in 40 W/m2
14:29 47.5 °F 45.5 °F 29.4 in WSW 2.9 mph 13 mph 93% 0.04 in 30 W/m2
14:34 47.5 °F 45.5 °F 29.4 in WSW 12.1 mph 12 mph 93% 0.05 in 35 W/m2
14:39 47.5 °F 45.5 °F 29.4 in SW 4.9 mph 14 mph 93% 0.05 in 105 W/m2
14:44 47.5 °F 45.5 °F 29.4 in WNW 4 mph 12 mph 93% 0.05 in 86 W/m2
14:49 47.5 °F 45.5 °F 29.4 in WNW 2.9 mph 8 mph 93% 0.05 in 30 W/m2
14:54 47.5 °F 45.5 °F 29.4 in WSW 4 mph 12 mph 93% 0.05 in 19 W/m2
14:59 47.5 °F 45.5 °F 29.4 in WSW 6.9 mph 14 mph 93% 0.05 in 23 W/m2
15:04 47.3 °F 45.3 °F 29.4 in West 4 mph 8 mph 93% 0.04 in 25 W/m2
15:09 47.1 °F 45.1 °F 29.4 in NW 11 mph 14 mph 93% 0.03 in 46 W/m2
15:14 47.3 °F 45.3 °F 29.4 in West 8.1 mph 8 mph 93% 0.03 in 60 W/m2
15:19 47.1 °F 45 °F 29.4 in WSW 4 mph 13 mph 92% 0.02 in 32 W/m2
15:24 47.1 °F 45 °F 29.4 in West 10.1 mph 13 mph 92% 0.02 in 46 W/m2
Juneau County Weather
Compliments of Weather Underground - 2 mb